Home > Weather > Jaipur > Past weeks

Flag for India Past Weather in Jaipur, Rajasthan, India — Yesterday and Last 2 Weeks

Now
90 °F

Broken clouds.


Feels Like: 103 °F
Forecast: 77 / 83 °F
Wind: 6 mph from Southeast

Location: Jaipur / Sanganer

Current Time: Jul 28, 2016 at 2:17:09 PM

Latest Report: Jul 28, 2016 at 1:30 PM


Visibility: 2 mi

Pressure: 29.65 "Hg

Humidity: 67%

Dew Point: 77 °F

Location of JaipurLocation

Past Weather in Jaipur — Graph

°F

Jaipur Temperature Yesterday

Maximum temperature yesterday: 86 °F (at 3:00 PM)
Minimum temperature yesterday: 79 °F (at 1:00 AM)
Average temperature yesterday: 82 °F

High & Low Weather Summary for the Past Weeks

 TemperatureHumidityPressure
High97 °F (Jul 20, 4:00 PM)100% (Jul 15, 11:00 AM)29.74 "Hg (Jul 15, 11:00 AM)
Low75 °F (Jul 16, 2:00 PM)39% (Jul 23, 2:00 PM)29.50 "Hg (Jul 13, 4:30 PM)
Average85 °F74%29.63 "Hg
* Reported Jul 13 12:30 PM — Jul 28 1:00 PM, Jaipur, Weather by CustomWeather, © 2016

Note: Actual official high and low records may vary slightly from our data, if they occured in-between our weather recording intervals... More about our weather records

Advertising

Jaipur Weather History for the Previous 24 Hours

Scroll right to see more
 ConditionsComfort  
Time TempWeatherWind HumidityBarometerVisibility
1:00 PM
Thu, Jul 28
88 °FBroken clouds.7 mph70%29.65 "Hg2 mi
12:30 PM88 °FBroken clouds.8 mph70%29.68 "Hg2 mi
12:00 PM86 °FBroken clouds.7 mph75%29.68 "Hg2 mi
11:00 AM86 °FBroken clouds.5 mph75%29.71 "Hg2 mi
10:30 AM84 °FBroken clouds.5 mph79%29.71 "Hg2 mi
10:00 AM82 °FBroken clouds.3 mph84%29.71 "Hg2 mi
9:00 AM81 °FBroken clouds.5 mph89%29.71 "Hg2 mi
8:30 AM81 °FBroken clouds.2 mph89%29.71 "Hg2 mi
8:00 AM81 °FBroken clouds.2 mph89%29.71 "Hg2 mi
7:30 AM79 °FBroken clouds.3 mph94%29.71 "Hg2 mi
7:00 AM79 °FBroken clouds.3 mph94%29.68 "Hg2 mi
6:00 AM79 °FPartly cloudy.3 mph94%29.68 "Hg2 mi
5:30 AM79 °FPartly cloudy.3 mph94%29.68 "Hg2 mi
5:00 AM79 °FMostly cloudy.2 mph94%29.68 "Hg2 mi
4:00 AM79 °FLight rain. Mostly cloudy.3 mph94%29.68 "Hg2 mi
2:30 AM79 °FLight rain. Mostly cloudy.5 mph94%29.68 "Hg2 mi
1:00 AM79 °FPartly cloudy.5 mph94%29.71 "Hg2 mi
12:00 AM79 °FPartly cloudy.2 mph94%29.71 "Hg2 mi
11:00 PM
Wed, Jul 27
79 °FPartly cloudy.No wind89%29.71 "Hg2 mi
10:30 PM79 °FPartly cloudy.1 mph89%29.71 "Hg2 mi
10:00 PM79 °FPartly cloudy.3 mph89%29.71 "Hg2 mi
9:00 PM79 °FPartly cloudy.6 mph89%29.71 "Hg2 mi
8:00 PM84 °FPartly cloudy.8 mph74%29.68 "Hg4 mi
7:00 PM84 °FBroken clouds.6 mph74%29.68 "Hg4 mi
6:30 PM84 °FBroken clouds.8 mph74%29.68 "Hg4 mi
6:00 PM86 °FBroken clouds.8 mph70%29.68 "Hg3 mi
5:30 PM86 °FBroken clouds.9 mph70%29.68 "Hg3 mi
5:00 PM86 °FBroken clouds.9 mph70%29.65 "Hg3 mi
4:00 PM86 °FBroken clouds.9 mph75%29.65 "Hg3 mi
3:00 PM86 °FBroken clouds.7 mph75%29.68 "Hg3 mi
2:30 PM84 °FBroken clouds.3 mph84%29.68 "Hg2 mi
2:00 PM82 °FBroken clouds.3 mph89%29.71 "Hg2 mi
Weather by CustomWeather, © 2016

See weather overviewHow to use our weather pages